[[{"header":{"parameterUnit":"m.s-1","parameterCategory":1,"la1":30.2991,"la2":30.254,"lo1":-89.0895,"lo2":-89.0444,"dy":0.0017,"dx":0.0017,"nx":28,"ny":28,"refTime":"2025-07-07T09:00:00:Z","depth":0,"parameterNumber":2,"parameterNumberName":"U-component_of_WINDS"},"data":[0,0,0,0,0,0,0,0,0,0,0,0,0,0,0,0,0,0,0,0,0,0,0,0,0,0,0,0,0,0,0,0,0,0,0,0,0,0,0,0,0,0,0,0,0,0,0,0,0,0,0,0,0,0,0,0,0,0,-1.4368,-1.4368,0,-1.4423,-1.4423,-1.4424,-1.4459,-1.4459,-1.4459,-1.4459,-1.4513,-1.4514,-1.4515,0,0,0,0,0,0,0,0,0,0,0,0,0,-1.4287,-1.4288,-1.4368,-1.4368,-1.4369,-1.4423,-1.4423,-1.4424,-1.4459,-1.4459,-1.4459,-1.4459,-1.4512,-1.4514,-1.4515,0,0,0,0,0,0,0,0,0,0,0,0,0,-1.433,-1.4289,-1.4367,-1.4393,-1.4395,-1.4423,-1.4423,-1.4424,-1.4458,-1.4459,-1.4459,-1.4459,-1.4512,-1.4513,-1.4515,-1.4521,0,0,-1.4521,-1.4522,0,0,0,0,0,0,0,0,-1.4327,-1.4333,-1.4388,-1.4391,-1.4394,-1.4434,-1.4415,-1.4457,-1.4458,-1.4434,-1.4459,-1.4459,-1.4486,-1.449,-1.45,-1.4523,-1.4526,-1.4521,-1.4522,-1.4523,-1.4524,0,0,0,0,0,0,0,-1.4324,-1.4331,-1.4389,-1.4389,-1.4393,-1.4399,-1.4406,-1.4423,-1.4458,-1.4437,-1.4439,-1.4445,-1.4488,-1.4498,-1.4501,-1.4526,-1.4521,-1.4523,-1.4524,-1.4525,-1.4554,-1.4553,0,0,0,0,0,0,-1.4318,-1.4328,-1.4388,-1.4391,-1.4361,-1.4401,-1.4408,-1.4421,-1.4458,-1.4464,-1.4445,-1.4447,-1.4494,-1.4499,-1.4503,-1.451,-1.4523,-1.4525,-1.4526,-1.4554,-1.4554,-1.4553,0,0,0,0,0,0,-1.4316,-1.4323,-1.4385,-1.436,-1.4369,-1.4402,-1.4416,-1.4422,-1.4432,-1.4464,-1.447,-1.4449,-1.4495,-1.45,-1.4516,-1.4512,-1.4526,-1.4527,-1.4554,-1.4554,-1.4554,-1.4525,0,0,0,0,0,0,-1.4314,-1.4322,-1.4326,-1.436,-1.437,-1.4398,-1.4416,-1.4423,-1.4436,-1.4438,-1.447,-1.4475,-1.4495,-1.4513,-1.4517,-1.4515,-1.4529,-1.4555,-1.4554,-1.4554,-1.4526,-1.4523,-1.4521,0,0,0,0,0,-1.4311,-1.4316,-1.4326,-1.4333,-1.4376,-1.4398,-1.4404,-1.4428,-1.4435,-1.4438,-1.4458,-1.4474,-1.4512,-1.4514,-1.452,-1.4518,-1.4555,-1.4554,-1.4554,-1.4527,-1.4524,-1.4521,0,0,0,0,0,0,-1.4281,-1.4321,-1.4333,-1.4349,-1.437,-1.4404,-1.4409,-1.4424,-1.4443,-1.4444,-1.4472,-1.4479,-1.4491,-1.4506,-1.4507,-1.4523,-1.4535,-1.4536,-1.4513,-1.451,-1.4508,-1.4504,-1.453,0,0,0,0,0,-1.4276,-1.4292,-1.4326,-1.4337,-1.4347,-1.4376,-1.4387,-1.4403,-1.4426,-1.4434,-1.4456,-1.4476,-1.4492,-1.4502,-1.4519,-1.4528,-1.4534,-1.453,-1.4527,-1.4525,-1.4525,-1.4528,-1.4526,-1.4551,-1.4551,-1.4551,0,0,-1.4266,-1.429,-1.4299,-1.4332,-1.435,-1.4364,-1.4383,-1.4398,-1.4409,-1.4436,-1.4452,-1.4468,-1.4492,-1.4503,-1.451,-1.4516,-1.4519,-1.4524,-1.4522,-1.4523,-1.4527,-1.4525,-1.4522,-1.455,-1.455,-1.455,0,0,-1.4256,-1.4277,-1.4287,-1.4305,-1.4331,-1.435,-1.4352,-1.4383,-1.4395,-1.4411,-1.4431,-1.4443,-1.4471,-1.4486,-1.4498,-1.449,-1.4504,-1.4494,-1.4481,-1.4484,-1.4482,-1.448,-1.4475,-1.4473,-1.4494,-1.4494,-1.4494,0,-1.4241,-1.4265,-1.4291,-1.4304,-1.4316,-1.4342,-1.4351,-1.4366,-1.4397,-1.4404,-1.4411,-1.4445,-1.4463,-1.4477,-1.4475,-1.4484,-1.4486,-1.4491,-1.448,-1.4479,-1.4478,-1.4473,-1.4471,-1.4493,-1.4493,-1.4493,-1.4493,0,-1.4243,-1.4259,-1.4264,-1.4293,-1.4306,-1.4317,-1.4343,-1.4352,-1.4367,-1.4384,-1.4398,-1.442,-1.4441,-1.4445,-1.446,-1.4461,-1.4464,-1.4475,-1.4487,-1.4473,-1.4469,-1.4468,-1.449,-1.4491,-1.4491,-1.4492,0,0,-1.4218,-1.4259,-1.426,-1.4272,-1.4302,-1.4314,-1.4324,-1.4345,-1.4352,-1.4371,-1.4379,-1.4401,-1.4411,-1.4424,-1.444,-1.4443,-1.4432,-1.4453,-1.4454,-1.4447,-1.4431,-1.4422,-1.442,-1.4441,-1.4441,-1.4441,-1.4429,0,-1.4212,-1.4234,-1.4256,-1.4269,-1.4282,-1.4305,-1.4314,-1.4332,-1.4347,-1.4359,-1.4376,-1.439,-1.4404,-1.4411,-1.4415,-1.4432,-1.4429,-1.4434,-1.4448,-1.4448,-1.444,-1.4418,-1.4409,-1.4396,-1.4428,-1.4427,-1.4427,0,-1.4208,-1.4226,-1.424,-1.4266,-1.4272,-1.428,-1.4299,-1.4311,-1.433,-1.4341,-1.4354,-1.437,-1.4381,-1.4391,-1.4404,-1.4407,-1.4414,-1.4423,-1.4423,-1.4425,-1.4436,-1.4418,-1.4393,-1.439,-1.4426,-1.4426,-1.4426,0,-1.4186,-1.4213,-1.4225,-1.4235,-1.4265,-1.427,-1.4282,-1.4303,-1.4312,-1.4328,-1.4334,-1.435,-1.4359,-1.4371,-1.439,-1.4397,-1.44,-1.4413,-1.4408,-1.4407,-1.4408,-1.4407,-1.4382,-1.4413,-1.4413,-1.4414,-1.4414,0,-1.4177,-1.4184,-1.4215,-1.4222,-1.423,-1.4254,-1.4261,-1.4275,-1.4292,-1.4301,-1.4321,-1.4328,-1.4354,-1.4364,-1.438,-1.4386,-1.4391,-1.4398,-1.4402,-1.4396,-1.4395,-1.44,-1.4401,-1.4413,-1.4413,-1.4413,-1.4413,0,-1.4154,-1.4175,-1.4189,-1.4216,-1.4222,-1.4227,-1.4249,-1.4256,-1.4271,-1.4281,-1.4285,-1.4309,-1.4322,-1.4342,-1.4361,-1.4371,-1.4374,-1.4382,-1.4368,-1.437,-1.4362,-1.4362,-1.4339,-1.4337,-1.4371,-1.437,-1.437,0,-1.4147,-1.4153,-1.4179,-1.4186,-1.4198,-1.421,-1.4219,-1.4241,-1.425,-1.4271,-1.4274,-1.4288,-1.43,-1.4318,-1.4337,-1.435,-1.4357,-1.4348,-1.4359,-1.4352,-1.4354,-1.4353,-1.4353,-1.4345,-1.4344,-1.4344,-1.4344,0,-1.413,-1.4139,-1.4152,-1.4168,-1.4178,-1.4192,-1.4206,-1.421,-1.4235,-1.4244,-1.4256,-1.4265,-1.4283,-1.4296,-1.4311,-1.4323,-1.4336,-1.434,-1.4339,-1.4332,-1.4323,-1.4326,-1.4359,-1.434,-1.4341,-1.4341,-1.4341,-1.4341,-1.4114,-1.4119,-1.4138,-1.415,-1.4163,-1.4175,-1.4181,-1.4197,-1.4208,-1.4224,-1.4236,-1.4247,-1.4263,-1.4285,-1.4295,-1.4303,-1.431,-1.4309,-1.4309,-1.4308,-1.4304,-1.4323,-1.4306,-1.4306,-1.4306,-1.4307,-1.4307,0,-1.4097,-1.4109,-1.4121,-1.4139,-1.4148,-1.416,-1.4176,-1.4182,-1.4192,-1.4206,-1.4217,-1.4229,-1.4241,-1.4259,-1.4271,-1.4273,-1.428,-1.4276,-1.4275,-1.4277,-1.4299,-1.4297,-1.427,-1.427,-1.427,-1.427,-1.427,-1.427,-1.4089,-1.4098,-1.4108,-1.4122,-1.4134,-1.4145,-1.4152,-1.4162,-1.4173,-1.4186,-1.4196,-1.4207,-1.4222,-1.4235,-1.4245,-1.425,-1.4253,-1.4246,-1.4253,-1.4273,-1.4276,-1.4279,-1.4278,-1.4247,-1.4247,-1.423,-1.423,-1.423]},{"header":{"parameterUnit":"m.s-1","parameterCategory":1,"la1":30.2991,"la2":30.254,"lo1":-89.0895,"lo2":-89.0444,"dy":0.0017,"dx":0.0017,"nx":28,"ny":28,"refTime":"2025-07-07T09:00:00:Z","depth":0,"parameterNumber":3,"parameterNumberName":"V-component_of_WINDS"},"data":[0,0,0,0,0,0,0,0,0,0,0,0,0,0,0,0,0,0,0,0,0,0,0,0,0,0,0,0,0,0,0,0,0,0,0,0,0,0,0,0,0,0,0,0,0,0,0,0,0,0,0,0,0,0,0,0,0,0,-1.6111,-1.6111,0,-1.6134,-1.6134,-1.6134,-1.6141,-1.6141,-1.6141,-1.6141,-1.6164,-1.6165,-1.6165,0,0,0,0,0,0,0,0,0,0,0,0,0,-1.6071,-1.6072,-1.6111,-1.6111,-1.6112,-1.6134,-1.6134,-1.6134,-1.6141,-1.6141,-1.6141,-1.6141,-1.6164,-1.6165,-1.6166,0,0,0,0,0,0,0,0,0,0,0,0,0,-1.6091,-1.6072,-1.6111,-1.6118,-1.6119,-1.6134,-1.6134,-1.6135,-1.6142,-1.6141,-1.6141,-1.6141,-1.6164,-1.6165,-1.6166,-1.6176,0,0,-1.6169,-1.6169,0,0,0,0,0,0,0,0,-1.609,-1.6092,-1.6116,-1.6117,-1.6118,-1.6135,-1.6129,-1.6148,-1.6142,-1.6133,-1.6141,-1.6141,-1.6154,-1.6156,-1.6161,-1.6177,-1.6178,-1.6169,-1.617,-1.617,-1.617,0,0,0,0,0,0,0,-1.6088,-1.6091,-1.612,-1.6117,-1.6118,-1.6119,-1.6122,-1.6132,-1.6144,-1.6134,-1.6134,-1.6137,-1.6155,-1.616,-1.6161,-1.6178,-1.6169,-1.617,-1.6171,-1.6171,-1.6201,-1.6201,0,0,0,0,0,0,-1.6086,-1.609,-1.6119,-1.6121,-1.6103,-1.612,-1.6123,-1.613,-1.6144,-1.6146,-1.6137,-1.6137,-1.6158,-1.616,-1.6162,-1.6173,-1.617,-1.6171,-1.6172,-1.62,-1.6201,-1.6201,0,0,0,0,0,0,-1.6085,-1.6088,-1.6118,-1.6105,-1.6109,-1.6121,-1.6128,-1.613,-1.6135,-1.6147,-1.6149,-1.614,-1.6158,-1.6161,-1.6172,-1.6174,-1.6172,-1.6173,-1.62,-1.62,-1.6201,-1.6197,0,0,0,0,0,0,-1.6084,-1.6088,-1.6093,-1.6106,-1.611,-1.6128,-1.6129,-1.6131,-1.6137,-1.6137,-1.615,-1.6152,-1.6158,-1.617,-1.6173,-1.6176,-1.6173,-1.62,-1.62,-1.6201,-1.6197,-1.6197,-1.6197,0,0,0,0,0,-1.6082,-1.6091,-1.6093,-1.6096,-1.6116,-1.6128,-1.6131,-1.6138,-1.6137,-1.6141,-1.6148,-1.6152,-1.6174,-1.6171,-1.6174,-1.6178,-1.62,-1.62,-1.6201,-1.6197,-1.6197,-1.6197,0,0,0,0,0,0,-1.6079,-1.6093,-1.6095,-1.6108,-1.6117,-1.613,-1.6135,-1.6138,-1.6147,-1.6147,-1.6155,-1.6158,-1.6168,-1.6174,-1.6171,-1.6187,-1.6187,-1.6188,-1.6183,-1.6183,-1.6183,-1.6181,-1.6174,0,0,0,0,0,-1.6079,-1.6088,-1.61,-1.6111,-1.6115,-1.6124,-1.613,-1.6134,-1.6143,-1.6147,-1.6155,-1.6164,-1.6172,-1.6178,-1.6187,-1.6197,-1.6199,-1.6201,-1.6201,-1.6201,-1.6202,-1.6206,-1.6206,-1.6202,-1.6202,-1.6202,0,0,-1.6081,-1.609,-1.6095,-1.611,-1.6117,-1.6126,-1.6127,-1.6137,-1.6143,-1.6149,-1.6159,-1.6165,-1.6175,-1.6185,-1.619,-1.619,-1.6203,-1.6201,-1.6201,-1.6202,-1.6206,-1.6207,-1.6207,-1.6202,-1.6202,-1.6202,0,0,-1.6088,-1.6096,-1.6105,-1.6112,-1.6122,-1.6128,-1.613,-1.6141,-1.6145,-1.6156,-1.616,-1.6167,-1.6182,-1.6188,-1.6194,-1.62,-1.6203,-1.6203,-1.6203,-1.6207,-1.6208,-1.6208,-1.6209,-1.621,-1.6203,-1.6203,-1.6203,0,-1.6089,-1.6102,-1.6109,-1.6117,-1.6123,-1.6128,-1.6136,-1.6142,-1.6155,-1.6159,-1.6159,-1.6176,-1.6184,-1.6195,-1.6196,-1.62,-1.6202,-1.6202,-1.6207,-1.6207,-1.6208,-1.6209,-1.621,-1.6203,-1.6203,-1.6203,-1.6203,0,-1.6101,-1.611,-1.6116,-1.6127,-1.6134,-1.6142,-1.6149,-1.6155,-1.6158,-1.6163,-1.6173,-1.6181,-1.6191,-1.6194,-1.6197,-1.6204,-1.6204,-1.6206,-1.6206,-1.6208,-1.6209,-1.621,-1.6203,-1.6203,-1.6203,-1.6203,0,0,-1.6108,-1.6122,-1.6124,-1.6128,-1.6139,-1.6146,-1.6153,-1.6162,-1.6166,-1.6174,-1.618,-1.6192,-1.6192,-1.6198,-1.6202,-1.6206,-1.6209,-1.6207,-1.6207,-1.6206,-1.6215,-1.6214,-1.6214,-1.621,-1.6211,-1.6211,-1.6214,0,-1.6116,-1.613,-1.6135,-1.6147,-1.6154,-1.6157,-1.6164,-1.6171,-1.6175,-1.6182,-1.6187,-1.6194,-1.6195,-1.6198,-1.6202,-1.6208,-1.6211,-1.6207,-1.6215,-1.6215,-1.6212,-1.6215,-1.6214,-1.6217,-1.6215,-1.6215,-1.6215,0,-1.6127,-1.6134,-1.6146,-1.6154,-1.6157,-1.6163,-1.6171,-1.6177,-1.6184,-1.6187,-1.6192,-1.6196,-1.6203,-1.6202,-1.6211,-1.6209,-1.6212,-1.6215,-1.6215,-1.6216,-1.6215,-1.6215,-1.6219,-1.6219,-1.6216,-1.6216,-1.6216,0,-1.6129,-1.6142,-1.615,-1.6154,-1.6164,-1.6167,-1.6172,-1.6179,-1.6183,-1.619,-1.6192,-1.6199,-1.6203,-1.6208,-1.6213,-1.6213,-1.6221,-1.6221,-1.6223,-1.6223,-1.6225,-1.6224,-1.6228,-1.6228,-1.6227,-1.6227,-1.6227,0,-1.6137,-1.6144,-1.6151,-1.6156,-1.6163,-1.6168,-1.6175,-1.6179,-1.6185,-1.619,-1.6194,-1.6199,-1.6205,-1.621,-1.6214,-1.622,-1.6222,-1.6224,-1.6225,-1.6223,-1.6223,-1.6225,-1.6225,-1.6228,-1.6228,-1.6228,-1.6228,0,-1.6141,-1.6146,-1.6155,-1.6163,-1.6165,-1.617,-1.6176,-1.6181,-1.6185,-1.6191,-1.6193,-1.6199,-1.6205,-1.621,-1.6219,-1.6221,-1.6227,-1.6228,-1.6224,-1.6225,-1.6226,-1.6225,-1.623,-1.6231,-1.6231,-1.6231,-1.6231,0,-1.6145,-1.615,-1.6158,-1.6162,-1.6166,-1.6172,-1.6176,-1.618,-1.6184,-1.6192,-1.6195,-1.6201,-1.6206,-1.6216,-1.6221,-1.6226,-1.6228,-1.6229,-1.6229,-1.6226,-1.6227,-1.6226,-1.6226,-1.6229,-1.6229,-1.6229,-1.6229,0,-1.6152,-1.6153,-1.6159,-1.6165,-1.617,-1.6175,-1.618,-1.6183,-1.6189,-1.6193,-1.6199,-1.6203,-1.621,-1.6216,-1.6222,-1.6226,-1.6228,-1.6229,-1.6229,-1.6228,-1.6225,-1.6226,-1.6224,-1.6229,-1.6229,-1.6229,-1.6229,-1.6229,-1.6155,-1.6159,-1.6165,-1.617,-1.6175,-1.6179,-1.6183,-1.6187,-1.6192,-1.6198,-1.6201,-1.6207,-1.6212,-1.622,-1.6223,-1.6227,-1.6228,-1.6229,-1.6229,-1.6229,-1.6228,-1.6224,-1.6229,-1.6229,-1.6229,-1.6229,-1.6229,0,-1.6161,-1.6164,-1.617,-1.6176,-1.618,-1.6182,-1.6187,-1.619,-1.6195,-1.62,-1.6204,-1.621,-1.6215,-1.622,-1.6225,-1.6227,-1.6228,-1.6229,-1.6228,-1.6229,-1.6228,-1.6227,-1.6228,-1.6228,-1.6228,-1.6228,-1.6228,-1.6228,-1.6164,-1.6171,-1.6173,-1.618,-1.6184,-1.6189,-1.6192,-1.6195,-1.6199,-1.6205,-1.6209,-1.6212,-1.6217,-1.6222,-1.6226,-1.6227,-1.6229,-1.6228,-1.623,-1.6229,-1.6229,-1.6229,-1.6228,-1.6229,-1.6229,-1.623,-1.623,-1.623]}]]